Wind_Speed
3 3 4 5 5 6 6 7 8 9 10 11 12 13 13 13 13 14 14 14 14 14 14 15 16 16 17 17 17 17 17 17 17 18 18 19 19 19 20 20 20 20 20
2 3 4 5 6 7 8 9 10 11 12 13 13 13 14 14 13 13 13 13 14 14 14 15 15 16 17 17 17 18 18 18 18 19 19 19 20 20 21 22 22 23 23
3 5 6 7 8 9 10 11 12 13 13 14 14 14 13 13 13 13 13 14 14 14 14 15 16 16 17 18 19 19 20 20 20 20 21 21 21 21 22 22 23 23 24
5 7 8 9 10 11 12 12 13 13 14 14 14 13 13 13 13 13 13 13 14 14 15 15 16 17 18 19 20 21 22 22 23 23 23 23 24 24 24 25 25 25 26
8 9 10 11 12 12 13 13 13 14 14 14 13 13 13 13 13 13 13 14 14 14 15 15 16 17 18 19 20 21 22 23 24 25 26 26 27 27 28 28 28 28 28
10 11 12 13 13 13 14 14 14 14 13 13 13 12 12 12 13 13 14 14 15 15 16 16 17 18 18 19 20 21 22 23 24 25 26 27 28 29 30 31 32 32 32
13 13 14 14 14 14 14 14 14 13 13 12 12 12 12 13 13 14 15 16 17 17 18 18 19 19 20 20 21 21 22 23 24 25 26 27 28 29 31 32 33 34 35
15 15 15 14 15 14 14 14 13 13 12 12 12 12 13 14 15 16 16 17 18 19 20 20 21 22 22 22 23 24 24 25 25 26 27 27 28 29 31 32 33 35 36
16 15 16 15 15 15 14 14 13 13 12 12 12 13 14 15 15 17 18 19 20 21 21 22 23 24 25 25 26 26 27 27 28 28 29 29 30 30 31 32 33 34 36
17 16 16 16 15 15 14 14 13 13 12 12 13 13 14 15 16 17 18 19 21 22 23 24 24 25 26 27 28 29 29 30 31 31 32 32 32 33 33 34 35 35 36
17 17 16 16 16 15 15 14 14 13 13 13 14 14 15 16 17 18 19 20 21 22 24 24 25 26 27 28 29 30 31 32 33 34 34 35 35 36 36 37 38 38 39
18 17 17 16 16 16 15 15 14 14 14 14 15 16 16 18 18 20 21 22 23 24 25 26 26 27 28 29 30 31 32 33 34 35 36 37 38 39 39 40 40 41 42
18 18 18 17 17 17 16 16 16 16 16 16 17 18 19 20 21 22 23 24 25 26 27 28 29 29 30 31 31 32 33 34 35 36 38 39 40 41 42 43 43 44 44
19 20 19 19 19 18 18 18 19 19 19 19 20 21 22 23 24 25 26 27 28 29 30 31 32 32 33 33 34 34 35 36 37 38 39 41 42 43 44 45 46 47 47
21 21 21 21 21 21 21 21 22 22 22 23 23 24 25 26 27 28 29 30 31 32 33 34 35 35 36 37 37 38 38 39 39 40 41 42 43 44 46 47 48 49 49
22 23 23 23 24 24 24 24 25 25 26 26 27 28 29 30 31 32 33 34 35 36 37 37 38 39 39 40 41 42 42 43 43 43 44 44 45 46 47 48 49 50 51
24 25 25 26 27 27 28 28 29 29 29 30 32 33 33 34 35 36 36 38 39 39 40 41 42 42 43 44 44 45 46 47 47 47 47 47 48 48 49 50 51 52 52
27 27 28 29 29 30 31 32 32 33 33 34 36 37 38 39 39 40 40 41 42 43 44 45 45 46 47 47 48 49 50 50 51 51 51 51 51 51 51 52 52 53 54
30 30 30 31 32 34 35 35 36 36 37 38 39 40 41 42 43 43 44 45 45 46 47 48 49 50 50 51 51 52 53 53 54 54 54 54 54 54 54 54 54 54 55
32 32 33 34 35 37 38 38 39 40 40 42 43 43 44 45 47 47 47 48 49 49 50 51 52 53 54 54 54 55 55 56 56 57 57 57 57 57 56 56 56 56 57
33 34 35 37 38 39 40 41 42 43 44 44 44 45 46 47 49 51 51 51 52 53 53 54 56 56 57 57 58 58 58 58 58 59 59 59 59 59 59 58 58 58 59
33 35 37 38 39 41 42 43 44 45 45 45 46 47 49 51 52 53 54 54 55 56 56 57 58 59 59 60 60 61 61 60 60 60 59 59 59 60 60 60 60 60 60
33 35 37 38 40 41 43 44 45 46 47 47 48 50 52 54 54 55 56 58 58 59 59 59 60 61 62 62 62 63 63 63 62 60 58 58 59 60 61 61 61 61 61
33 34 36 38 40 42 44 45 46 47 48 49 51 53 54 55 56 57 58 59 60 61 61 62 63 63 64 65 65 64 65 64 63 62 60 59 59 60 61 60 60 61 62
34 35 37 39 41 43 44 46 48 49 50 52 54 55 55 57 58 59 60 61 62 63 64 64 65 66 66 66 66 66 64 63 62 62 61 60 60 60 61 60 60 61 62
36 37 39 40 42 44 46 47 49 50 52 54 55 56 57 58 59 60 61 63 64 65 65 66 67 67 67 67 66 65 64 63 63 62 61 60 61 61 61 60 61 62 62
Wind_Direction
267 267 268 270 273 275 277 281 283 284 286 287 287 288 288 289 289 289 290 290 289 287 286 285 284 283 282 281 279 278 275 272 270 269 268 267 266 265 263 261 259 258 257
272 274 277 280 282 284 285 286 287 289 290 290 290 291 292 292 293 293 293 292 291 290 289 287 284 283 282 280 279 278 276 275 273 271 270 268 268 267 266 264 262 262 261
279 283 285 286 287 287 287 288 289 290 291 291 292 292 293 293 294 294 293 292 291 290 288 287 285 283 282 280 278 276 275 274 273 272 271 269 268 267 266 265 264 263 262
281 284 286 287 288 288 288 288 289 290 291 291 292 292 293 294 295 295 295 294 293 292 290 288 287 285 283 281 279 278 275 274 272 271 271 270 269 268 267 266 265 264 264
283 285 286 287 287 287 287 288 289 290 290 291 292 293 294 296 297 299 299 298 298 296 294 292 290 289 287 284 282 280 278 276 274 272 271 270 269 268 267 267 266 265 264
282 282 283 284 284 285 286 287 288 288 289 290 292 294 297 298 300 302 302 302 301 301 300 298 296 294 292 290 287 284 282 280 278 276 274 272 270 268 267 267 266 266 265
279 279 280 280 281 282 284 285 286 287 288 291 294 297 299 302 304 304 304 303 303 302 301 301 299 298 296 295 293 290 288 285 283 281 278 276 274 272 270 268 267 267 266
278 278 278 278 279 280 281 283 284 285 288 292 294 298 301 304 305 306 305 305 304 304 303 302 300 299 298 296 295 294 292 290 288 286 283 280 278 276 274 272 271 269 268
277 275 275 275 277 278 279 280 282 284 288 291 296 300 303 306 307 308 308 308 308 307 306 304 302 300 299 297 295 294 293 291 290 288 286 284 282 279 277 275 273 272 270
275 273 272 274 274 275 277 279 281 283 287 291 297 301 305 307 309 310 310 310 310 309 308 307 305 303 301 299 296 294 293 291 290 288 287 286 284 283 281 279 277 275 274
274 273 272 272 272 273 276 277 280 283 287 292 298 302 305 307 308 309 310 310 310 310 310 309 307 305 303 301 299 296 294 292 291 289 288 286 285 284 282 281 280 278 276
273 272 270 269 270 273 274 276 279 283 287 292 296 299 301 303 305 306 307 308 308 309 309 309 308 307 305 303 301 299 296 294 291 289 287 286 284 283 282 280 279 278 276
272 271 269 268 269 271 273 275 279 282 286 289 292 294 297 298 300 301 302 303 304 304 305 306 306 306 306 305 303 301 299 296 293 290 287 285 283 281 280 279 278 277 276
271 269 270 271 271 272 273 275 278 281 283 286 289 291 293 294 296 297 298 299 300 300 301 301 302 303 303 303 303 302 301 299 296 293 289 285 283 281 279 277 276 275 274
269 270 271 272 272 272 273 274 276 279 281 283 286 288 290 292 293 294 295 297 298 298 298 298 298 299 299 300 301 301 301 299 298 295 292 288 284 281 279 277 275 274 273
270 270 271 271 271 272 273 274 276 277 279 282 284 286 287 289 290 292 293 295 295 296 297 297 296 296 297 297 298 299 299 299 298 297 294 291 287 284 281 278 276 275 273
270 271 271 271 272 273 273 274 276 277 279 281 282 284 285 287 288 290 291 292 293 294 295 295 295 295 295 295 296 297 298 298 298 297 295 292 290 286 284 281 279 277 275
273 272 272 272 273 273 273 274 275 277 278 279 281 282 284 286 287 288 289 291 292 293 294 294 294 294 295 295 295 296 296 297 297 296 295 294 292 289 286 284 281 279 277
276 274 273 272 271 272 273 274 275 276 277 278 280 281 283 285 286 287 288 289 291 292 293 293 293 294 294 294 294 295 295 295 295 295 295 294 293 290 288 285 283 281 279
277 276 273 272 272 273 274 275 276 276 277 278 280 282 283 284 285 287 288 289 290 291 292 292 293 293 293 293 293 293 294 294 294 294 294 294 292 291 289 287 285 283 281
280 278 276 275 275 276 277 277 277 278 279 280 281 282 283 283 285 286 288 289 290 290 291 292 292 292 293 293 293 292 293 293 293 293 293 293 292 291 289 288 286 285 283
283 281 280 279 279 279 279 279 280 280 281 282 282 282 282 282 284 286 288 288 289 290 291 291 291 292 292 292 293 293 292 292 291 292 292 292 291 290 289 289 288 286 285
287 285 284 283 282 282 281 282 282 282 282 282 281 281 282 284 285 286 287 288 289 289 290 291 291 291 292 291 292 293 293 292 291 290 290 290 289 289 289 289 289 288 287
289 286 284 284 283 283 282 282 282 281 282 282 281 282 283 284 284 285 286 287 288 289 290 290 291 291 291 292 292 292 292 292 292 291 290 289 289 289 289 289 290 289 288
290 287 286 284 283 283 282 282 282 282 282 281 281 282 282 283 284 285 286 286 287 288 289 290 290 290 291 292 292 292 292 291 292 292 291 290 290 289 289 290 291 291 290
291 289 287 286 284 283 283 282 282 282 281 281 282 282 282 283 284 284 285 285 286 287 288 289 290 291 292 292 293 293 292 292 292 292 292 291 291 291 291 292 292 291 291
Height
5869 5869 5870 5870 5871 5871 5871 5871 5871 5871 5871 5871 5871 5870 5870 5870 5870 5869 5869 5869 5869 5869 5869 5869 5868 5868 5868 5869 5869 5870 5870 5871 5872 5873 5873 5874 5875 5875 5876 5877 5878 5879 5880
5868 5869 5869 5869 5869 5870 5870 5870 5869 5869 5869 5869 5868 5868 5867 5867 5867 5867 5867 5866 5866 5866 5866 5866 5866 5866 5866 5866 5866 5867 5867 5868 5868 5869 5870 5870 5871 5872 5873 5874 5874 5875 5876
5867 5867 5868 5868 5868 5868 5868 5868 5867 5867 5867 5866 5866 5865 5865 5864 5864 5864 5864 5864 5864 5864 5863 5863 5863 5863 5863 5863 5863 5863 5864 5864 5865 5865 5866 5867 5867 5868 5868 5869 5870 5871 5872
5866 5866 5866 5866 5866 5866 5865 5865 5865 5865 5864 5864 5863 5863 5862 5862 5861 5861 5861 5861 5861 5861 5860 5860 5860 5860 5860 5860 5860 5860 5860 5860 5861 5861 5862 5862 5863 5863 5864 5865 5865 5866 5867
5864 5864 5864 5864 5864 5863 5863 5863 5862 5862 5862 5861 5861 5860 5860 5859 5859 5858 5858 5858 5858 5857 5857 5857 5857 5856 5856 5856 5856 5856 5856 5856 5856 5856 5857 5857 5858 5858 5859 5859 5860 5861 5862
5862 5862 5862 5862 5861 5861 5861 5860 5860 5859 5859 5858 5858 5857 5857 5856 5856 5856 5855 5855 5855 5854 5854 5854 5853 5853 5852 5852 5852 5851 5851 5851 5851 5851 5852 5852 5852 5853 5853 5853 5854 5855 5855
5860 5860 5859 5859 5859 5858 5858 5858 5857 5857 5856 5856 5855 5855 5854 5854 5853 5853 5852 5852 5851 5851 5850 5850 5849 5849 5848 5848 5847 5847 5847 5846 5846 5846 5846 5846 5846 5846 5846 5847 5847 5848 5848
5858 5857 5856 5856 5856 5856 5855 5855 5855 5854 5854 5853 5853 5852 5852 5851 5851 5850 5849 5849 5848 5847 5847 5846 5845 5845 5844 5843 5843 5842 5841 5841 5841 5841 5840 5840 5840 5840 5840 5840 5840 5840 5841
5855 5855 5854 5854 5853 5853 5853 5852 5852 5852 5851 5851 5850 5850 5849 5848 5848 5847 5846 5845 5844 5844 5843 5842 5841 5840 5839 5838 5838 5837 5836 5836 5835 5834 5834 5834 5833 5833 5833 5833 5833 5833 5833
5852 5852 5851 5851 5851 5850 5850 5850 5849 5849 5849 5848 5848 5847 5846 5846 5845 5844 5843 5842 5841 5840 5839 5838 5837 5835 5834 5833 5832 5831 5830 5830 5829 5828 5827 5826 5826 5825 5825 5825 5825 5825 5825
5849 5849 5849 5848 5848 5847 5847 5847 5847 5846 5846 5845 5845 5844 5843 5842 5842 5841 5840 5838 5837 5836 5835 5833 5832 5831 5829 5828 5827 5825 5824 5823 5822 5821 5820 5819 5818 5817 5817 5817 5816 5816 5816
5846 5846 5846 5845 5845 5845 5844 5844 5844 5843 5843 5842 5841 5841 5840 5839 5838 5837 5836 5835 5834 5832 5831 5829 5828 5826 5824 5823 5821 5819 5818 5817 5815 5814 5813 5811 5810 5809 5808 5808 5807 5807 5806
5843 5842 5842 5842 5842 5842 5841 5841 5840 5840 5839 5838 5838 5837 5836 5835 5834 5833 5832 5831 5829 5828 5826 5825 5823 5821 5819 5817 5815 5813 5812 5810 5808 5807 5805 5804 5802 5801 5800 5799 5798 5797 5797
5839 5839 5838 5838 5838 5838 5838 5837 5837 5836 5835 5835 5834 5833 5832 5831 5830 5828 5827 5825 5824 5822 5821 5819 5817 5815 5813 5811 5809 5807 5805 5803 5801 5799 5797 5795 5793 5792 5790 5789 5788 5787 5786
5835 5835 5835 5834 5834 5834 5834 5833 5833 5832 5831 5830 5829 5828 5827 5825 5824 5823 5821 5820 5818 5816 5814 5812 5811 5808 5806 5804 5802 5800 5798 5795 5793 5791 5788 5786 5784 5782 5780 5778 5777 5776 5775
5831 5831 5830 5830 5829 5829 5829 5828 5828 5827 5826 5825 5823 5822 5821 5819 5817 5816 5814 5813 5811 5809 5807 5805 5803 5800 5798 5796 5793 5791 5788 5786 5783 5781 5778 5775 5773 5771 5768 5767 5765 5764 5762
5827 5826 5825 5824 5824 5823 5823 5822 5821 5821 5820 5818 5817 5815 5813 5812 5810 5808 5807 5804 5802 5800 5798 5796 5793 5791 5789 5786 5784 5781 5778 5775 5772 5770 5767 5764 5761 5758 5756 5754 5752 5750 5749
5822 5821 5820 5819 5818 5817 5816 5815 5815 5814 5812 5811 5809 5807 5805 5803 5802 5800 5798 5796 5793 5791 5789 5786 5783 5781 5778 5775 5773 5770 5767 5763 5760 5757 5754 5751 5748 5746 5743 5740 5738 5736 5734
5816 5815 5814 5813 5812 5810 5809 5808 5807 5806 5805 5803 5801 5799 5797 5794 5792 5791 5789 5786 5783 5781 5778 5775 5772 5769 5767 5764 5761 5758 5754 5751 5747 5744 5741 5737 5734 5731 5728 5726 5723 5721 5719
5809 5808 5807 5806 5804 5802 5801 5800 5799 5798 5796 5794 5792 5790 5788 5785 5782 5780 5778 5776 5773 5770 5767 5763 5760 5757 5754 5751 5748 5745 5741 5738 5734 5730 5727 5723 5719 5716 5713 5710 5708 5705 5702
5802 5800 5799 5798 5796 5795 5793 5792 5790 5789 5787 5786 5784 5781 5778 5775 5772 5769 5767 5764 5761 5758 5755 5751 5747 5744 5740 5736 5733 5731 5728 5724 5720 5716 5712 5708 5704 5700 5696 5693 5691 5688 5685
5794 5792 5791 5790 5788 5787 5785 5783 5781 5780 5778 5776 5774 5771 5767 5764 5761 5758 5755 5752 5749 5745 5742 5738 5734 5730 5726 5722 5718 5714 5712 5710 5706 5702 5698 5693 5688 5684 5680 5677 5674 5671 5668
5786 5784 5782 5781 5779 5777 5775 5773 5772 5769 5768 5766 5763 5759 5756 5752 5750 5747 5743 5739 5735 5732 5728 5724 5720 5715 5711 5708 5704 5699 5695 5692 5689 5688 5684 5680 5674 5669 5665 5661 5657 5653 5650
5778 5776 5773 5771 5769 5767 5765 5762 5760 5758 5756 5754 5750 5747 5744 5740 5736 5733 5729 5725 5721 5717 5714 5709 5705 5701 5696 5692 5688 5685 5680 5675 5671 5668 5667 5663 5658 5654 5649 5645 5641 5636 5632
5769 5767 5764 5761 5759 5756 5754 5751 5748 5746 5744 5740 5736 5734 5730 5727 5723 5719 5715 5710 5706 5702 5698 5694 5689 5685 5681 5676 5672 5668 5664 5659 5655 5650 5648 5645 5641 5637 5632 5629 5624 5619 5615
5761 5758 5755 5751 5748 5745 5742 5739 5736 5733 5729 5726 5722 5719 5716 5712 5709 5705 5700 5695 5691 5687 5682 5678 5673 5669 5665 5660 5655 5651 5647 5643 5639 5634 5630 5627 5623 5619 5615 5611 5607 5602 5597